Retour au catalogue

STARLINK-37277

ActifCommunicationsSSO
NORAD 68751·PAYLOAD·🇺🇸 United States

Lancé Apr 15, 2026 depuis Vandenberg Space Force Base

Loading…

Prochains Passages (prochaines 24 heures)

TLE

FraisSource: CelesTrak SupGP

Époque: Sep 14, 2026, 23:28 UTC

1 68751C 26082Z   26257.97826389  .00080527  00000+0  25001-2 0  2577
2 68751  97.2845 120.2379 0001970  94.8154 178.4125 15.33392410    16

Suivez STARLINK-37277 en temps réel avec AllMySat

Download on the App Store